This is the latest recevied weather packets stored in our database for station/object DC7RY. If no packets are shown the sender has not sent any weather packets the latest 10 day(s).
| Time | Temp. | Humidity | Pressure | Rain* | Wind** | Luminosity | Snow |
|---|---|---|---|---|---|---|---|
| 1777519826 | 0° C | 74% | 1023.5 hPa | 0 mm | - | 0 W/m² | - |
| 1777519218 | 0° C | 72% | 1023.5 hPa | 0 mm | - | 0 W/m² | - |
| 1777518626 | 0° C | 71% | 1023.2 hPa | 0 mm | - | 0 W/m² | - |
| 1777518018 | 0.56° C | 71% | 1023.2 hPa | 0 mm | - | 0 W/m² | - |
| 1777517426 | 0.56° C | 70% | 1023.2 hPa | 0 mm | - | 0 W/m² | - |
| 1777516818 | 1.11° C | 69% | 1023.3 hPa | 0 mm | - | 0 W/m² | - |
| 1777516226 | 1.11° C | 67% | 1023.3 hPa | 0 mm | - | 0 W/m² | - |
| 1777515618 | 1.67° C | 66% | 1023.1 hPa | 0 mm | - | 0 W/m² | - |
| 1777515026 | 1.67° C | 63% | 1023.1 hPa | 0 mm | - | 0 W/m² | - |
| 1777514418 | 1.67° C | 63% | 1023 hPa | 0 mm | - | 0 W/m² | - |
| 1777513826 | 1.67° C | 64% | 1023 hPa | 0 mm | - | 0 W/m² | - |
| 1777513218 | 2.22° C | 63% | 1023.1 hPa | 0 mm | - | 0 W/m² | - |
| 1777512626 | 2.22° C | 62% | 1022.9 hPa | 0 mm | - | 0 W/m² | - |
| 1777512018 | 2.22° C | 62% | 1022.9 hPa | 0 mm | - | 0 W/m² | - |
| 1777511426 | 2.22° C | 63% | 1022.9 hPa | 0 mm | - | 0 W/m² | - |
| 1777510818 | 2.22° C | 62% | 1022.9 hPa | 0 mm | - | 0 W/m² | - |
| 1777510226 | 2.22° C | 61% | 1022.8 hPa | 0 mm | - | 0 W/m² | - |
| 1777509618 | 2.22° C | 62% | 1022.8 hPa | 0 mm | - | 0 W/m² | - |
| 1777509026 | 2.78° C | 64% | 1022.8 hPa | 0 mm | - | 0 W/m² | - |
| 1777508418 | 2.78° C | 62% | 1022.8 hPa | 0 mm | - | 0 W/m² | - |
| 1777507826 | 2.78° C | 61% | 1022.8 hPa | 0 mm | - | 0 W/m² | - |
| 1777507218 | 2.78° C | 62% | 1022.9 hPa | 0 mm | - | 0 W/m² | - |
| 1777506626 | 2.78° C | 63% | 1022.9 hPa | 0 mm | - | 0 W/m² | - |
| 1777506018 | 3.33° C | 63% | 1022.9 hPa | 0 mm | - | 0 W/m² | - |
| 1777505426 | 3.33° C | 60% | 1022.9 hPa | 0 mm | - | 0 W/m² | - |
* Rain latest hour (hover to see other rain measurements)
** Current wind speed in m/s (hover to see current wind gust speed)